EHI
0 0 1 2 2 1 0 1 0 0 0 0 0 0 0 0 0 1 2 1 0 0 0 0 0 0 0 0 0 0 0 0 0 0 0 0 0 0 1 1 1 0 0
0 0 0 1 1 1 1 1 0 0 0 0 0 0 0 0 0 1 2 2 1 0 0 1 1 0 0 0 0 0 0 0 0 0 0 0 0 0 0 0 0 0 0
0 0 0 0 1 1 1 0 0 0 0 0 1 0 0 0 0 0 1 1 2 1 1 1 1 0 0 0 0 0 0 0 0 0 0 0 0 0 0 0 0 0 0
0 0 0 0 1 1 0 0 0 0 0 0 0 0 0 0 0 0 0 1 2 2 1 1 1 0 0 0 0 0 0 0 0 0 0 1 1 1 0 0 0 0 0
0 0 0 0 0 0 0 0 0 1 1 0 0 0 0 0 0 0 0 0 1 2 2 1 0 0 0 0 0 0 0 0 0 0 0 1 2 1 1 1 1 0 0
0 0 0 0 0 0 0 0 0 1 1 0 0 0 0 0 1 0 0 0 0 1 1 1 0 0 0 0 0 0 0 0 0 0 0 1 1 1 1 1 1 1 1
0 0 0 0 0 0 0 0 0 1 1 0 0 0 0 0 0 0 0 0 0 0 0 0 0 0 0 0 0 0 0 0 0 0 0 0 0 0 0 1 1 1 1
0 0 0 0 0 0 0 0 0 0 0 0 0 0 0 0 0 0 0 0 0 0 0 0 0 0 0 0 0 0 0 0 0 0 0 0 0 0 0 0 0 0 1
0 0 0 0 0 0 0 0 0 0 0 0 0 0 0 0 0 0 0 0 0 0 0 0 0 0 0 0 0 0 0 0 0 0 0 0 0 0 0 0 0 0 0
1 1 0 0 0 0 0 0 0 0 0 0 1 1 1 0 0 0 0 0 0 0 0 0 0 0 0 0 0 0 0 0 0 0 0 0 0 0 0 0 0 0 0
0 0 0 0 0 0 0 0 0 0 0 0 1 1 1 0 0 0 0 0 0 0 0 0 0 0 0 0 0 0 0 0 0 0 0 0 0 0 0 0 0 0 0
0 0 0 0 0 0 0 0 0 0 0 0 0 0 0 0 0 0 0 0 0 0 0 0 0 0 0 0 0 0 0 0 0 0 0 0 0 0 0 0 0 0 0
0 0 0 0 0 0 0 0 0 0 0 0 0 0 0 0 0 0 0 0 0 0 0 0 0 0 0 0 0 0 0 0 0 0 0 0 0 0 0 0 0 0 0
1 0 0 0 0 0 0 0 0 0 0 0 0 0 0 0 0 0 0 0 0 0 0 0 0 0 0 0 0 0 0 0 0 0 0 0 0 0 0 0 0 0 0
2 1 0 0 0 0 0 0 0 0 0 0 0 0 0 0 0 0 0 0 0 0 0 0 0 0 0 0 0 0 0 0 0 0 0 0 0 0 0 0 0 0 0
2 1 0 0 0 0 0 0 0 0 0 0 0 0 0 0 0 0 0 0 0 0 0 0 0 0 0 0 0 0 0 0 0 0 0 0 0 0 0 0 0 0 0
2 1 0 0 0 0 0 0 0 0 0 0 0 0 0 0 0 0 0 0 0 0 0 0 0 0 0 0 0 0 0 0 0 0 0 0 0 0 0 0 0 0 0
1 0 0 0 0 0 0 0 0 0 0 0 0 0 0 0 0 0 0 0 0 0 0 0 0 0 0 0 0 0 0 0 0 0 0 0 0 0 0 0 1 1 1
0 0 0 0 0 0 0 0 0 0 0 0 0 0 0 0 0 0 0 0 0 0 0 0 0 0 0 0 0 0 0 0 0 0 0 0 0 0 0 0 1 2 2
0 0 0 0 0 0 0 0 0 0 0 0 0 0 0 0 0 0 0 0 0 0 0 0 0 0 0 0 0 0 0 0 0 0 0 0 0 0 0 0 0 1 2
0 0 0 0 0 1 1 1 0 0 0 0 0 0 0 0 0 0 0 0 0 0 0 0 0 0 0 0 0 0 0 0 0 0 0 0 0 0 0 0 0 0 1
0 0 1 1 1 1 1 1 0 0 0 0 0 0 0 0 0 0 0 0 0 0 0 0 0 0 0 0 0 0 0 0 0 0 0 0 0 0 0 0 0 0 0
1 0 1 2 1 1 0 0 0 0 0 0 0 0 0 0 0 0 0 0 0 0 0 0 0 0 0 0 0 0 0 0 0 0 0 0 0 0 0 0 0 0 0
2 1 1 1 1 0 0 0 0 0 0 0 0 0 0 0 0 0 0 0 0 0 0 0 0 0 0 0 0 0 0 0 0 0 0 0 0 0 0 0 0 0 0
2 3 3 2 1 1 0 0 0 0 0 0 0 0 0 0 0 0 0 0 0 0 0 0 0 0 0 0 0 0 0 0 0 0 0 0 0 0 0 0 0 0 0
2 3 4 4 4 2 1 0 0 0 0 0 0 0 0 0 0 0 0 0 0 0 0 0 0 0 0 0 0 0 0 0 0 0 0 0 0 0 0 0 0 0 0
Wind_Speed
3 3 5 4 5 6 6 6 7 8 8 9 9 9 10 10 9 9 10 10 10 10 10 9 9 9 9 9 9 9 10 9 10 9 9 9 8 9 8 6 5 7 9
3 4 5 4 5 6 6 6 7 8 9 9 10 10 10 10 10 10 10 10 10 10 9 9 9 9 9 9 9 9 9 9 9 9 7 8 9 8 8 8 8 7 8
4 4 5 5 5 6 6 7 8 8 9 9 9 9 9 10 10 9 9 9 10 10 9 9 9 9 9 9 10 10 10 9 8 6 3 5 8 8 8 8 8 7 7
5 5 5 7 6 6 7 8 9 9 9 9 9 9 9 9 9 9 9 9 9 9 9 9 9 10 9 10 10 10 10 9 7 2 4 7 7 10 8 8 7 7 7
6 5 7 7 7 7 8 9 9 9 9 8 9 9 9 9 9 9 9 9 9 10 9 9 9 9 9 10 10 9 9 8 5 4 7 7 7 9 8 7 7 7 7
6 6 8 7 7 7 8 9 9 9 9 8 8 9 9 9 9 9 8 9 9 9 9 9 9 9 10 10 9 9 8 6 3 7 7 6 7 9 8 8 7 7 7
6 6 7 7 7 7 8 8 9 9 9 9 9 9 9 9 9 8 8 9 9 9 9 9 9 10 10 10 9 9 7 4 6 6 6 7 8 9 9 8 7 7 7
6 6 7 8 7 7 7 7 8 8 8 8 9 9 9 9 9 9 9 9 8 9 9 9 9 10 10 10 9 9 7 4 6 7 7 7 9 9 9 9 8 8 9
6 6 5 6 7 7 7 7 7 7 8 8 9 9 9 9 8 8 9 9 9 9 9 9 10 10 10 10 9 8 7 5 5 5 7 7 9 9 9 9 8 8 9
6 5 5 5 5 6 7 7 7 7 8 8 8 8 8 7 8 7 9 10 9 9 9 10 10 10 10 10 9 8 4 1 6 7 6 8 9 9 9 8 8 8 9
5 4 5 5 4 5 5 7 6 7 7 6 7 7 4 5 7 6 11 10 10 10 10 10 10 9 8 9 8 4 1 4 7 6 6 9 9 9 9 9 8 8 8
5 4 4 4 4 4 4 4 3 4 4 4 4 5 4 5 5 6 9 9 9 9 9 9 7 5 2 5 6 2 3 6 6 6 8 10 9 9 9 9 9 8 8
5 4 3 3 4 4 3 3 2 2 3 3 4 4 3 4 3 3 3 5 6 5 5 6 4 4 5 5 4 5 6 5 5 5 9 11 10 10 10 9 9 9 9
4 4 4 3 3 4 3 3 2 2 2 2 3 4 3 2 2 3 2 3 3 3 4 3 3 5 6 6 6 6 6 5 5 5 8 12 11 11 10 9 9 9 9
5 4 4 3 3 3 3 2 2 2 2 3 2 3 4 2 3 3 3 2 3 3 3 3 4 5 5 6 5 6 6 7 6 6 6 12 12 11 11 10 10 10 9
5 5 5 4 3 3 3 3 2 2 2 1 2 2 3 2 2 2 3 3 3 3 3 4 5 4 4 4 5 6 6 6 6 6 6 7 11 11 12 11 11 9 9
5 5 5 4 4 4 3 3 2 2 3 2 2 2 2 2 2 2 2 3 3 3 4 4 5 4 4 4 5 6 5 6 5 6 6 5 6 9 11 11 11 10 9
5 5 5 4 4 4 3 3 2 1 2 2 2 1 2 2 2 2 2 2 3 3 3 3 3 4 4 4 4 4 4 4 5 5 5 5 4 5 8 11 11 11 10
6 6 6 5 5 4 3 2 2 2 2 1 2 1 1 2 2 2 2 2 3 3 3 3 3 3 4 4 3 3 3 3 4 4 5 5 5 5 5 7 10 11 12
6 6 6 5 5 4 3 3 2 2 2 1 2 2 2 1 2 3 2 3 3 3 3 3 4 3 3 2 3 3 3 3 3 4 4 4 5 5 5 5 4 7 11
6 6 6 6 5 4 3 3 3 2 2 2 2 2 3 2 2 3 2 3 3 3 3 4 4 4 3 2 2 3 3 3 4 3 3 3 4 5 4 5 4 4 5
6 7 7 6 6 5 3 2 2 1 2 2 2 2 2 3 3 2 3 3 3 3 4 4 3 2 2 2 1 1 2 3 3 3 3 3 4 3 4 5 4 4 4
6 7 6 6 6 6 5 3 3 2 2 3 3 2 2 3 3 3 3 3 3 3 3 4 4 4 2 2 1 2 1 1 2 2 3 3 3 3 3 4 4 5 5
6 6 7 7 6 6 6 5 5 4 3 3 2 3 3 3 3 3 3 3 3 3 4 4 4 3 3 2 1 1 2 1 1 2 2 3 3 3 3 3 3 4 4
7 6 6 6 6 6 6 6 6 4 3 2 3 4 4 3 3 3 3 3 3 3 3 3 3 3 2 2 1 1 1 1 2 1 1 2 2 2 3 3 2 3 4
7 7 6 6 6 6 7 7 7 6 5 4 4 4 3 3 3 4 3 3 3 3 3 3 3 3 2 2 2 2 2 2 1 1 2 2 1 2 3 3 2 3 3
Wind_Direction
109 89 81 79 92 94 98 101 103 105 106 108 109 106 101 96 93 90 88 86 84 81 79 79 77 77 77 77 75 76 76 74 71 72 75 77 76 76 77 77 86 93 88
110 106 99 92 97 98 102 108 106 105 105 107 109 107 102 98 93 90 89 88 85 82 80 77 78 77 76 76 76 76 75 72 70 70 79 89 81 77 77 68 51 70 85
110 114 116 101 100 100 98 101 101 100 105 107 108 106 101 97 93 91 90 88 85 83 82 80 80 78 78 78 77 75 74 73 73 71 82 86 87 80 78 73 68 72 79
108 104 94 99 97 99 100 102 101 101 102 105 107 105 101 98 96 94 92 88 84 82 81 81 81 82 80 79 78 76 74 73 72 56 69 66 74 77 76 74 71 69 75
101 96 91 96 96 95 98 100 102 104 103 101 104 104 100 96 96 94 91 88 84 80 79 78 80 82 81 80 77 74 73 75 76 60 64 66 70 73 72 69 65 65 68
105 100 95 93 94 94 98 99 102 105 106 103 102 100 97 94 94 95 93 90 85 82 81 78 79 81 81 79 75 72 68 68 81 67 66 66 70 73 70 66 62 66 67
104 102 106 99 95 96 97 99 102 105 106 106 102 97 94 93 92 93 91 90 88 84 83 80 79 79 78 77 75 71 65 46 64 70 65 65 68 69 68 65 63 64 66
108 108 107 107 97 91 93 95 101 104 105 103 99 96 93 89 86 90 90 89 90 89 87 84 82 80 76 74 74 70 57 11 74 67 68 67 67 66 67 64 61 62 63
109 106 105 115 116 108 95 90 94 97 98 97 95 94 90 86 85 87 89 89 91 90 89 87 84 79 76 75 74 73 62 20 56 60 65 64 65 63 63 64 61 62 63
114 110 109 108 104 112 111 97 93 92 89 94 93 91 93 100 100 99 98 87 89 89 87 87 87 83 78 74 74 72 62 47 58 62 57 66 65 63 65 65 62 61 61
121 113 108 108 105 107 107 109 112 108 99 114 112 112 132 108 100 101 80 81 84 85 85 85 86 90 94 89 79 73 47 60 61 56 54 57 60 64 67 68 64 60 59
138 127 115 111 113 114 112 115 119 119 122 114 104 110 100 91 88 91 100 89 87 92 97 90 99 124 132 99 105 145 68 64 59 63 61 54 56 61 66 68 65 61 58
149 142 128 121 120 117 119 117 117 119 118 117 110 108 101 99 112 107 112 122 116 124 108 115 131 84 78 74 66 66 56 53 55 58 58 54 55 57 59 60 61 58 57
159 156 146 146 140 131 125 123 135 136 136 127 129 117 116 101 101 99 101 96 107 100 94 88 77 79 73 74 71 68 66 59 59 62 60 52 51 50 53 55 57 56 56
166 164 158 163 158 142 131 140 144 132 135 135 126 141 123 114 110 111 106 102 98 97 103 89 84 80 77 73 71 67 65 62 59 60 68 58 48 46 47 53 55 54 55
177 175 164 169 166 165 158 161 141 135 141 137 140 145 126 113 116 118 103 98 96 89 85 95 93 91 82 74 72 69 63 63 61 60 62 74 64 51 47 49 50 52 55
182 177 168 170 174 173 169 156 155 164 154 149 146 157 142 130 134 129 120 116 112 111 105 98 96 90 90 86 78 73 68 59 61 61 55 48 69 70 54 46 46 49 52
190 179 169 171 179 173 177 173 164 164 155 149 149 153 154 151 142 131 126 124 122 117 111 109 111 103 94 84 77 71 74 67 59 56 57 58 50 55 69 54 47 46 47
195 186 180 179 179 174 172 172 170 165 153 150 144 143 161 157 164 144 126 137 131 129 121 123 110 105 97 91 87 79 69 63 56 53 57 55 58 54 60 76 65 51 45
196 191 183 179 181 165 166 173 159 162 154 152 146 146 148 172 169 140 156 154 141 137 131 130 120 113 101 103 91 80 68 69 62 51 49 55 52 51 49 48 63 70 55
197 198 189 184 177 168 169 181 178 172 169 159 157 153 162 163 164 157 174 156 157 156 157 150 138 137 132 125 122 112 98 72 63 62 48 45 57 50 50 52 46 45 68
196 200 197 190 181 173 171 178 177 168 169 147 157 156 169 171 171 170 174 163 164 158 160 156 159 162 154 189 211 175 148 129 86 60 61 51 48 57 48 45 52 57 47
195 195 192 190 182 176 172 169 162 155 177 172 166 160 169 182 173 181 176 177 169 168 168 175 177 187 187 200 267 293 285 88 107 92 64 59 49 43 51 46 48 50 53
195 192 191 188 185 180 181 186 191 192 192 188 181 168 174 179 173 181 179 184 178 178 177 187 185 194 207 206 194 295 321 22 247 147 122 77 58 49 46 48 46 50 51
194 188 192 188 182 183 190 189 203 202 193 178 179 177 180 168 171 182 182 179 182 185 192 189 186 206 213 230 214 196 204 211 249 218 161 139 99 67 51 47 49 47 50
190 185 186 187 182 185 193 193 199 196 193 186 188 183 181 169 175 181 182 187 189 188 185 190 193 200 220 218 233 219 212 221 211 215 195 165 122 82 68 54 43 50 57